Regional Weather Roundup
Issued by NWS

Home | Current Version | Previous Version | Graphics & Text | Print | Product List | Glossary On
Versions: 1 2 3 4 5 6 7 8 9 10 11 12 13 14 15 16 17 18 19 20 21 22 23 24 25 26 27 28 29 30 31 32 33 34 35 36 37 38 39 40 41 42 43 44 45 46 47 48 49 50
969
ASUS45 KCYS 171610
RWRWY

WYOMING REGIONAL WEATHER ROUNDUP
NATIONAL WEATHER SERVICE CHEYENNE WY
900 AM MST WED JAN 17 2018

NOTE:  "FAIR" INDICATES FEW OR NO CLOUDS BELOW 12,000 FEET
WITH NO SIGNIFICANT WEATHER AND/OR OBSTRUCTIONS TO VISIBILITY.

WYZ001-171700-
YELLOWSTONE NATIONAL PARK

CITY           SKY/WX    TMP DP  RH WIND       PRES   REMARKS
LK YELLOWSTONE   N/A     12  10  92 CALM      30.40R
W YELLOWSTONE  NOT AVBL

$$
WYZ002>013-054>058-071-098>099-171700-
NORTHERN WYOMING

CITY           SKY/WX    TMP DP  RH WIND       PRES   REMARKS
JACKSON        FAIR       3  -2  79 N7        30.46R WCI  -9
CODY           FAIR      20  14  77 CALM      30.30R
GREYBULL       FAIR       3  -1  83 CALM      30.38R
WORLAND        FAIR       3   1  91 S3        30.35R
SHERIDAN       FAIR      27  17  66 SE7       30.28R WCI  19
BUFFALO        FAIR      38  12  34 W9G18     30.29R WCI  31
GILLETTE         N/A     32  15  49 SW5       30.28R WCI  27
HULETT         FAIR      30  14  51 S5        30.28S WCI  25
NEWCASTLE      FAIR      23   5  46 SE7       30.27R WCI  15

$$
WYZ014>020-022>026-101>103-171700-
CENTRAL WYOMING

CITY           SKY/WX    TMP DP  RH WIND       PRES   REMARKS
BIG PINEY      FAIR      15  10  80 CALM      30.36R
PINEDALE       FAIR       5   1  85 CALM      30.35R
DUBOIS         FAIR      32  19  59 NW13      30.32R WCI  22
LANDER         FAIR      13  12  96 CALM      30.35R
RIVERTON       FAIR      14  10  84 NW3       30.36R
CASPER         FAIR      26  11  52 SW15      30.36R WCI  14
DOUGLAS        FAIR      27  16  63 NW14      30.34R WCI  16

$$
WYZ021-027>030-104>119-171700-
SOUTHERN WYOMING

CITY           SKY/WX    TMP DP  RH WIND       PRES   REMARKS
EVANSTON       PTSUNNY   21  17  84 S5        30.39R WCI  15
FORT BRIDGER   FAIR      31  22  69 W8        30.40R WCI  24
ROCK SPRINGS   FAIR      24  14  65 SW7       30.37R WCI  16
DIXON            N/A     19   6  57 E6        30.44R WCI  11
RAWLINS        FAIR      16   5  62 CALM      30.38R
SARATOGA       FAIR      23   5  46 SE3       30.38R
LARAMIE        FAIR      19   5  54 E5        30.31R WCI  12
CHEYENNE       FAIR      36   9  32 NW14      30.26R WCI  27
TORRINGTON     FAIR      17  10  74 NW12      30.28R WCI   4

$$




USA.gov is the U.S. government's official web portal to all federal, state and local government web resources and services.